Le nostre stazioni meteo in Italia

Pubblicità
Il mio iltempo24.it
Luqa, Malta (16597): Temperatura & dewpoint: 16.10.2018 09:00:00 - 22.10.2018 09:00:00 (CEST)Luqa, Malta (16597): velocità del vento: 16.10.2018 09:00:00 - 22.10.2018 09:00:00 (CEST)Luqa, Malta (16597): direzione del vento: 16.10.2018 09:00:00 - 22.10.2018 09:00:00 (CEST)Luqa, Malta (16597): reduced air pressure: 16.10.2018 09:00:00 - 22.10.2018 09:00:00 (CEST)Luqa, Malta (16597): visibility: 16.10.2018 09:00:00 - 22.10.2018 09:00:00 (CEST)
Data & Tempo tt [°C] td [°C] ff [km/h] ff [kn] dd ppp [hPa] vv [km]
22.10.2018 09:00:00 - - - - - - -
22.10.2018 08:00:00 18,8 17,4 9 5 O 1012,4 10
22.10.2018 07:00:00 19,0 17,0 8 4 ONO - 10
22.10.2018 06:00:00 18,0 17,0 13 7 ONO - 10
22.10.2018 05:00:00 18,3 17,7 9 5 NO 1012,9 10
22.10.2018 04:00:00 18,0 18,0 8 4 O - 10
22.10.2018 03:00:00 18,0 17,0 5 3 SO - 10
22.10.2018 02:00:00 17,6 17,5 21 11 OSO 1014,5 7
22.10.2018 01:00:00 17,0 17,0 11 6 ENE - 8
22.10.2018 00:00:00 21,0 18,0 15 8 ONO - 3,7
21.10.2018 23:00:00 20,7 18,1 9 5 OSO 1015,5 10
21.10.2018 22:00:00 20,0 18,0 8 4 OSO - 10
21.10.2018 21:00:00 21,0 18,0 8 4 O - 10
21.10.2018 20:00:00 21,2 17,2 5 3 OSO 1015,9 10
21.10.2018 19:00:00 21,0 17,0 5 3 OSO - 10
21.10.2018 18:00:00 22,0 17,0 5 3 O - 10
21.10.2018 17:00:00 23,2 16,7 9 5 O 1016,1 10
21.10.2018 16:00:00 23,0 17,0 11 6 OSO - 10
21.10.2018 15:00:00 24,0 17,0 8 4 SO - 10
21.10.2018 14:00:00 23,8 16,8 5 3 OSO 1017,0 10
21.10.2018 13:00:00 24,0 17,0 9 5 S - 10
21.10.2018 12:00:00 24,0 17,0 8 4 S - 10
21.10.2018 11:00:00 22,8 17,8 8 4 SE 1018,6 10
21.10.2018 10:00:00 23,0 18,0 11 6 E - 10
21.10.2018 09:00:00 22,0 19,0 8 4 E - 10
21.10.2018 08:00:00 20,5 17,7 5 3 NE 1018,2 10
21.10.2018 07:00:00 20,0 17,0 5 3 ENE - 10
21.10.2018 06:00:00 20,0 17,0 5 3 NE - 10
21.10.2018 05:00:00 20,1 17,4 9 5 ENE 1018,2 10
21.10.2018 04:00:00 21,0 18,0 8 4 ENE - 10
21.10.2018 03:00:00 21,0 17,0 11 6 ENE - 10
21.10.2018 02:00:00 21,0 17,3 9 5 NE 1019,0 10
21.10.2018 01:00:00 21,0 17,0 11 6 ENE - 10
21.10.2018 00:00:00 21,0 18,0 8 4 ENE - 10
20.10.2018 23:00:00 21,4 18,1 9 5 ENE 1019,8 10
20.10.2018 22:00:00 22,0 18,0 9 5 ENE - 10
20.10.2018 21:00:00 22,0 18,0 11 6 E - 10
20.10.2018 20:00:00 22,0 18,1 11 6 ENE 1019,1 10
20.10.2018 19:00:00 22,0 18,0 13 7 E - 10
20.10.2018 18:00:00 22,0 18,0 15 8 E - 10
20.10.2018 17:00:00 22,9 18,7 21 11 NE 1018,2 10
20.10.2018 16:00:00 23,0 19,0 16 9 ENE - 10
20.10.2018 15:00:00 23,0 19,0 21 11 E - 10
20.10.2018 14:00:00 24,0 18,8 22 12 E 1018,4 10
20.10.2018 13:00:00 24,0 18,0 18 10 ENE - 10
20.10.2018 12:00:00 24,0 19,0 22 12 E - 10
20.10.2018 11:00:00 23,2 19,2 22 12 E 1018,6 10
20.10.2018 10:00:00 23,0 19,0 22 12 E - 10
20.10.2018 09:00:00 23,0 19,0 18 10 ENE - 10
20.10.2018 08:00:00 22,0 18,4 15 8 ENE 1016,7 10
20.10.2018 07:00:00 22,0 19,0 18 10 ENE - 10
20.10.2018 06:00:00 22,0 19,0 18 10 ENE - 10
20.10.2018 05:00:00 21,9 19,4 16 9 ENE 1015,7 10
20.10.2018 04:00:00 22,0 20,0 24 13 ENE - 9
20.10.2018 03:00:00 22,0 20,0 21 11 ENE - 8
20.10.2018 02:00:00 21,9 20,4 22 12 ENE 1015,6 7
20.10.2018 01:00:00 22,0 20,0 18 10 NE - 10
20.10.2018 00:00:00 22,0 19,0 13 7 ENE - 10
19.10.2018 23:00:00 21,2 18,5 11 6 NE 1015,6 10
19.10.2018 22:00:00 21,0 18,0 8 4 ENE - 10
19.10.2018 21:00:00 21,0 18,0 9 5 NE - 10
19.10.2018 20:00:00 21,3 17,1 9 5 ENE 1014,5 10
19.10.2018 19:00:00 21,0 18,0 11 6 ENE - 10
19.10.2018 18:00:00 22,0 17,0 15 8 ENE - 10
19.10.2018 17:00:00 22,5 17,3 16 9 ENE 1013,0 10
19.10.2018 16:00:00 23,0 18,0 11 6 ENE - 10
19.10.2018 15:00:00 23,0 18,0 16 9 ENE - 10
19.10.2018 14:00:00 23,1 17,5 16 9 ENE 1012,2 10
19.10.2018 13:00:00 23,0 18,0 15 8 NE - 10
19.10.2018 12:00:00 23,0 19,0 13 7 ENE - 10
19.10.2018 11:00:00 23,4 18,6 13 7 ENE 1012,2 10
19.10.2018 10:00:00 23,0 19,0 13 7 E - 10
19.10.2018 09:00:00 21,0 18,0 18 10 ESE - 10
19.10.2018 08:00:00 20,2 18,8 8 4 E 1010,5 10
19.10.2018 07:00:00 20,0 19,0 8 4 ENE - 10
19.10.2018 06:00:00 20,0 18,0 13 7 ESE - 10
19.10.2018 05:00:00 19,5 17,8 8 4 E 1008,9 10
19.10.2018 04:00:00 19,0 17,0 13 7 E - 10
19.10.2018 03:00:00 19,0 17,0 2 1 - - 10
19.10.2018 02:00:00 20,2 16,4 13 7 ENE 1008,7 10
19.10.2018 01:00:00 21,0 15,0 11 6 O - 10
19.10.2018 00:00:00 21,0 18,0 24 13 O - 10
18.10.2018 23:00:00 22,9 20,4 24 13 S 1008,3 9
18.10.2018 22:00:00 23,0 22,0 16 9 SSE - 8
18.10.2018 21:00:00 23,0 22,0 22 12 SE - 8
18.10.2018 20:00:00 23,2 21,9 26 14 ESE 1007,7 9
18.10.2018 19:00:00 23,0 22,0 24 13 ESE - 7
18.10.2018 18:00:00 23,0 22,0 24 13 ESE - 7
18.10.2018 17:00:00 23,5 21,4 24 13 ESE 1007,0 8
18.10.2018 16:00:00 23,0 21,0 28 15 ESE - 8
18.10.2018 15:00:00 24,0 21,0 34 18 ESE - 10
18.10.2018 14:00:00 23,9 21,3 34 18 ESE 1006,3 10
18.10.2018 13:00:00 24,0 21,0 37 20 ESE - 10
18.10.2018 12:00:00 24,0 21,0 39 21 ESE - 10
18.10.2018 11:00:00 23,7 20,6 35 19 ESE 1008,5 10
18.10.2018 10:00:00 23,0 20,0 35 19 ESE - 10
18.10.2018 09:00:00 23,0 20,0 31 17 ESE - 10
18.10.2018 08:00:00 22,6 20,1 28 15 ESE 1008,2 10
18.10.2018 07:00:00 23,0 20,0 39 21 ESE - 10
18.10.2018 06:00:00 23,0 20,0 31 17 ESE - 7
18.10.2018 05:00:00 22,6 19,6 35 19 SE 1008,2 9
18.10.2018 04:00:00 23,0 19,0 34 18 ESE - 9
18.10.2018 03:00:00 23,0 19,0 39 21 ESE - 10
18.10.2018 02:00:00 22,5 19,3 39 21 ESE 1009,1 10
18.10.2018 01:00:00 23,0 19,0 31 17 ESE - 10
18.10.2018 00:00:00 23,0 20,0 35 19 ESE - 10
17.10.2018 23:00:00 22,6 19,3 39 21 ESE 1010,9 10
17.10.2018 22:00:00 23,0 20,0 37 20 ESE - 10
17.10.2018 21:00:00 23,0 20,0 28 15 ESE - 10
17.10.2018 20:00:00 22,9 19,5 37 20 ESE 1011,0 10
17.10.2018 19:00:00 23,0 20,0 24 13 ESE - 10
17.10.2018 18:00:00 23,0 20,0 29 16 ESE - 10
17.10.2018 17:00:00 23,5 20,2 26 14 ESE 1011,0 10
17.10.2018 16:00:00 24,0 20,0 28 15 E - 10
17.10.2018 15:00:00 25,0 21,0 24 13 ESE - 10
17.10.2018 14:00:00 24,5 20,4 26 14 ESE 1012,3 10
17.10.2018 13:00:00 24,0 21,0 29 16 ESE - 10
17.10.2018 12:00:00 24,0 20,0 24 13 ESE - 10
17.10.2018 11:00:00 24,2 19,8 28 15 ESE 1013,7 10
17.10.2018 10:00:00 23,0 20,0 26 14 ESE - 10
17.10.2018 09:00:00 23,0 19,0 24 13 ESE - 10
17.10.2018 08:00:00 22,2 19,9 13 7 E 1014,3 10
17.10.2018 07:00:00 22,0 20,0 15 8 ESE - 10
17.10.2018 06:00:00 22,0 20,0 15 8 ESE - 10
17.10.2018 05:00:00 21,7 19,6 15 8 ESE 1014,1 10
17.10.2018 04:00:00 21,0 19,0 15 8 ESE - 10
17.10.2018 03:00:00 21,0 19,0 11 6 ESE - 10
17.10.2018 02:00:00 21,3 19,0 8 4 ESE 1015,9 10
17.10.2018 01:00:00 22,0 19,0 15 8 ESE - 10
17.10.2018 00:00:00 21,0 19,0 13 7 ESE - 10
16.10.2018 23:00:00 21,2 18,3 13 7 ESE 1017,0 10
16.10.2018 22:00:00 21,0 18,0 13 7 ESE - 10
16.10.2018 21:00:00 21,0 18,0 11 6 E - 10
16.10.2018 20:00:00 21,0 18,0 11 6 E - 10
16.10.2018 19:00:00 22,0 18,0 11 6 E - 10
16.10.2018 18:00:00 22,0 18,0 11 6 ESE - 10
16.10.2018 17:00:00 23,6 18,4 11 6 ESE 1016,1 10
16.10.2018 16:00:00 24,0 19,0 13 7 SSE - 10
16.10.2018 15:00:00 24,0 19,0 15 8 SE - 10
16.10.2018 14:00:00 24,2 18,9 15 8 SE 1016,7 10
16.10.2018 13:00:00 24,0 19,0 21 11 SE - 10
16.10.2018 12:00:00 24,0 19,0 16 9 SSE - 10
16.10.2018 11:00:00 23,6 18,5 18 10 SE 1017,2 10
16.10.2018 10:00:00 23,0 19,0 13 7 SE - 10
16.10.2018 09:00:00 23,0 19,0 9 5 SE - 10

tt = Temperatura
td = dewpoint
ff = velocità del vento
dd = direzione del vento
ppp = reduced air pressure
vv = visibility

Stazioni seguenti

WeatherPro
AMSI
MeteoEarth